Abraham Lincoln Capital Airport Airport (SPI)

 

Airport Diagram
Current Weather/Forecast (VFR Conditions)
METAR KSPI 132052Z 16007KT 10SM CLR 08/M02 A2985 RMK AO2 SLP108 T00831022 56023
TAF KSPI 131744Z 1318/1418 VRB03KT P6SM SCT250 FM132300 VRB03KT P6SM BKN070 FM140800 VRB03KT P6SM VCSH OVC035 FM141100 VRB03KT 5SM -RASN OVC008 FM141400 32007KT P6SM OVC012

All Charts
General
Chart Name Download
AIRPORT DIAGRAM
TAKEOFF MINIMUMS
ALTERNATE MINIMUMS
RADAR MINIMUMS
HOT SPOT
LAHSO

Approaches
Chart Name Download
ILS OR LOC RWY 04
ILS OR LOC RWY 22
ILS OR LOC RWY 31
RNAV (GPS) RWY 04
RNAV (GPS) RWY 13
RNAV (GPS) RWY 22
RNAV (GPS) RWY 31
VOR/DME RWY 13
VOR/DME RWY 22
VOR/DME RWY 31
VOR RWY 04


Inbound Traffic (Arrivals)

No inbound traffic.


Outbound Traffic (Departures)

No outbound traffic.